Weather History for Whiteville, NC

Change the Weather History Date:

Saturday, January 11, 2014

  Actual Average (KLBT) Record (KLBT)
Temperature  
Mean Temperature 66 °F 43 °F  
Max Temperature 76 °F 53 °F 73 °F (2014)
Min Temperature 57 °F 33 °F 17 °F (2004)
Degree Days  
Heating Degree Days 0 22  
Month to date heating degree days 241  
Since 1 July heating degree days 1291  
Cooling Degree Days 1 0  
Month to date cooling degree days 0  
Year to date cooling degree days 0  
Growing Degree Days 16 (Base 50)    
Moisture  
Dew Point 62 °F    
Average Humidity 89    
Maximum Humidity 97    
Minimum Humidity 70    
Precipitation  
Precipitation 0.59 in 0.08 in 0.97 in (2014)
Month to date precipitation 0.94  
Year to date precipitation 0.94  
Sea Level Pressure  
Sea Level Pressure 29.85 in    
Wind  
Wind Speed 8 mph (SSW)    
Max Wind Speed 23 mph    
Max Gust Speed 33 mph    
Visibility 9 miles    
Events Rain    
T = Trace of Precipitation, MM = Missing Value Source: NWS Daily Summary

Daily Weather History Graph

Daily Weather History Graph

Search for Another Location

Airport:

Trip Planner

Search our weather history database for the weather conditions in past years. The results will help you decide how hot, cold, wet, or windy it might be!

Date:

Astronomy

Jan. 11, 2014 Rise Set
Actual Time 7:21 AM EST 5:24 PM EST
Civil Twilight 6:54 AM EST 5:51 PM EST
Nautical Twilight 6:23 AM EST 6:22 PM EST
Astronomical Twilight 5:52 AM EST 6:53 PM EST
Moon 2:05 PM EST (1/11) 3:26 AM EST (1/11)
Length of Visible Light 10h 57m
Length of Day
10h 03m
Waxing Gibbous, 83% of the Moon is Illuminated
Jan 11
Waxing Gibbous
Jan 15
Full
Jan 24
Last Quarter
Jan 30
New
Feb 6
First Quarter

Hourly Weather History & Observations

Time (EST) Temp. Dew Point Humidity Pressure Visibility Wind Dir Wind Speed Gust Speed Precip Events Conditions
12:15 AM 65.3 °F 64.0 °F 96% 30.08 in 10.0 mi South 3.5 mph - N/A   Mostly Cloudy
12:35 AM 64.9 °F 63.7 °F 96% 30.08 in 10.0 mi South 5.8 mph - N/A   Mostly Cloudy
12:55 AM 64.4 °F 63.5 °F 97% 30.06 in 10.0 mi South 4.6 mph - N/A   Clear
1:15 AM 64.0 °F 63.0 °F 96% 30.06 in 7.0 mi SSW 4.6 mph - N/A   Clear
1:35 AM 63.1 °F 62.2 °F 97% 30.05 in 4.0 mi Calm Calm - N/A   Scattered Clouds
1:55 AM 63.5 °F 62.6 °F 97% 30.04 in 7.0 mi SSE 3.5 mph - N/A   Mostly Cloudy
2:15 AM 64.4 °F 63.5 °F 97% 30.03 in 10.0 mi SSE 8.1 mph - N/A   Overcast
2:35 AM 64.9 °F 63.9 °F 96% 30.02 in 10.0 mi SSE 6.9 mph - N/A   Overcast
2:55 AM 64.8 °F 63.5 °F 96% 30.01 in 10.0 mi SSE 5.8 mph - N/A   Overcast
3:15 AM 64.8 °F 63.5 °F 96% 30.01 in 10.0 mi South 5.8 mph - N/A   Overcast
3:35 AM 64.4 °F 62.8 °F 94% 30.00 in 10.0 mi SSE 4.6 mph - N/A   Mostly Cloudy
3:55 AM 64.0 °F 62.6 °F 95% 30.00 in 10.0 mi South 3.5 mph - N/A   Mostly Cloudy
4:15 AM 64.0 °F 62.6 °F 95% 29.99 in 10.0 mi Calm Calm - N/A   Overcast
4:35 AM 63.9 °F 62.6 °F 96% 29.98 in 10.0 mi South 5.8 mph - N/A   Scattered Clouds
4:55 AM 63.9 °F 62.8 °F 96% 29.97 in 10.0 mi South 5.8 mph - N/A   Mostly Cloudy
5:15 AM 64.9 °F 63.9 °F 96% 29.97 in 7.0 mi South 8.1 mph - N/A   Overcast
5:35 AM 65.5 °F 64.4 °F 96% 29.97 in 10.0 mi South 8.1 mph - N/A   Overcast
5:55 AM 65.8 °F 64.4 °F 95% 29.96 in 10.0 mi South 9.2 mph - N/A   Overcast
6:15 AM 66.4 °F 64.8 °F 95% 29.96 in 7.0 mi SSW 10.4 mph - N/A   Overcast
6:35 AM 67.1 °F 65.1 °F 93% 29.96 in 7.0 mi SSW 11.5 mph - N/A   Overcast
6:55 AM 67.1 °F 64.9 °F 93% 29.96 in 10.0 mi SSW 8.1 mph - N/A   Overcast
7:15 AM 67.5 °F 65.3 °F 93% 29.95 in 10.0 mi South 11.5 mph 18.4 mph N/A   Overcast
7:35 AM 67.6 °F 65.1 °F 92% 29.95 in 10.0 mi South 8.1 mph - N/A   Overcast
7:55 AM 67.6 °F 65.3 °F 92% 29.94 in 10.0 mi South 6.9 mph - N/A   Overcast
8:15 AM 68.0 °F 65.3 °F 91% 29.93 in 10.0 mi South 9.2 mph - N/A   Overcast
8:35 AM 68.2 °F 65.7 °F 92% 29.93 in 10.0 mi South 9.2 mph - N/A   Overcast
8:55 AM 69.1 °F 66.0 °F 90% 29.93 in 10.0 mi South 10.4 mph 17.3 mph N/A   Overcast
9:15 AM 69.8 °F 65.7 °F 87% 29.93 in 10.0 mi SSW 13.8 mph 20.7 mph N/A   Overcast
9:35 AM 70.2 °F 65.7 °F 86% 29.92 in 10.0 mi SSW 13.8 mph 20.7 mph N/A   Overcast
9:55 AM 71.1 °F 66.2 °F 85% 29.92 in 10.0 mi South 15.0 mph 20.7 mph N/A   Overcast
10:15 AM 72.0 °F 66.2 °F 82% 29.92 in 10.0 mi SSW 15.0 mph 24.2 mph N/A   Overcast
10:35 AM 73.0 °F 66.2 °F 79% 29.91 in 10.0 mi SSW 20.7 mph 32.2 mph N/A   Overcast
10:55 AM 72.7 °F 66.0 °F 80% 29.89 in 10.0 mi SSW 16.1 mph 27.6 mph N/A   Overcast
11:15 AM 73.4 °F 66.2 °F 78% 29.87 in 10.0 mi SSW 16.1 mph 27.6 mph N/A   Overcast
11:35 AM 73.4 °F 66.2 °F 78% 29.85 in 10.0 mi South 16.1 mph 20.7 mph N/A   Overcast
11:55 AM 73.0 °F 66.2 °F 79% 29.83 in 10.0 mi SSW 15.0 mph 26.5 mph N/A   Overcast
12:15 PM 73.6 °F 66.2 °F 78% 29.80 in 10.0 mi South 15.0 mph 26.5 mph N/A   Overcast
12:35 PM 73.9 °F 66.2 °F 77% 29.78 in 10.0 mi South 20.7 mph 26.5 mph N/A   Overcast
12:55 PM 74.3 °F 66.2 °F 76% 29.77 in 10.0 mi SSW 23.0 mph 28.8 mph N/A   Overcast
1:15 PM 74.3 °F 66.2 °F 76% 29.75 in 10.0 mi SSW 21.9 mph 32.2 mph N/A   Overcast
1:35 PM 74.7 °F 66.4 °F 75% 29.74 in 10.0 mi SSW 23.0 mph 31.1 mph N/A   Overcast
1:55 PM 75.7 °F 66.4 °F 73% 29.73 in 10.0 mi SSW 17.3 mph 29.9 mph N/A Rain Light Rain
2:15 PM 75.7 °F 65.5 °F 70% 29.73 in 10.0 mi SW 19.6 mph 33.4 mph N/A   Overcast
2:35 PM 75.0 °F 65.3 °F 72% 29.72 in 10.0 mi SW 16.1 mph 26.5 mph N/A   Overcast
2:55 PM 74.7 °F 65.3 °F 73% 29.73 in 10.0 mi SW 15.0 mph 26.5 mph N/A   Mostly Cloudy
3:15 PM 74.3 °F 64.9 °F 72% 29.72 in 10.0 mi SW 10.4 mph 26.5 mph N/A   Mostly Cloudy
3:35 PM 73.8 °F 64.8 °F 73% 29.72 in 10.0 mi SW 9.2 mph 17.3 mph N/A   Mostly Cloudy
3:55 PM 73.4 °F 64.8 °F 74% 29.73 in 10.0 mi SW 6.9 mph - N/A   Mostly Cloudy
4:15 PM 66.6 °F 59.4 °F 78% 29.75 in 5.0 mi West 11.5 mph 26.5 mph 0.02 in Rain Heavy Rain
4:35 PM 59.5 °F 57.2 °F 92% 29.74 in 10.0 mi WNW 3.5 mph - 0.05 in Rain Light Rain
4:55 PM 58.3 °F 56.5 °F 94% 29.76 in 1.2 mi Calm Calm - 0.28 in Rain Heavy Rain
5:15 PM 58.1 °F 56.3 °F 94% 29.74 in 7.0 mi WSW 3.5 mph - 0.01 in Rain Rain
5:35 PM 57.7 °F 56.3 °F 95% 29.74 in 3.0 mi SW 3.5 mph - 0.15 in Rain Rain
5:55 PM 57.6 °F 56.3 °F 96% 29.76 in 5.0 mi SSE 8.1 mph - 0.20 in Rain Rain
6:15 PM 57.4 °F 55.9 °F 95% 29.75 in 5.0 mi South 3.5 mph - 0.03 in Rain Rain
6:35 PM 57.4 °F 56.3 °F 96% 29.72 in 7.0 mi SSE 3.5 mph - 0.07 in Rain Rain
6:55 PM 57.4 °F 56.3 °F 96% 29.70 in 7.0 mi SSE 3.5 mph - 0.09 in Rain Rain
7:15 PM 57.4 °F 56.3 °F 96% 29.71 in 10.0 mi SSW 4.6 mph - 0.02 in Rain Light Rain
7:35 PM 57.6 °F 56.3 °F 96% 29.72 in 10.0 mi South 5.8 mph - 0.02 in   Scattered Clouds
7:55 PM 57.6 °F 56.3 °F 96% 29.71 in 10.0 mi SSW 4.6 mph - 0.02 in   Clear
8:15 PM 57.6 °F 56.3 °F 96% 29.71 in 10.0 mi SW 5.8 mph - N/A   Mostly Cloudy
8:35 PM 58.1 °F 56.3 °F 94% 29.70 in 10.0 mi WSW 5.8 mph - N/A   Overcast
8:55 PM 58.3 °F 56.5 °F 94% 29.70 in 10.0 mi SW 5.8 mph - N/A   Overcast
9:15 PM 58.5 °F 56.8 °F 94% 29.70 in 10.0 mi SW 8.1 mph - N/A   Overcast
9:35 PM 58.5 °F 57.0 °F 95% 29.70 in 10.0 mi SW 8.1 mph - N/A   Mostly Cloudy
9:55 PM 59.0 °F 57.2 °F 94% 29.70 in 10.0 mi SW 9.2 mph 16.1 mph N/A   Mostly Cloudy
10:15 PM 59.0 °F 57.2 °F 94% 29.71 in 10.0 mi SW 6.9 mph - N/A   Mostly Cloudy
10:35 PM 59.2 °F 57.2 °F 93% 29.70 in 10.0 mi SW 6.9 mph - N/A   Overcast
10:55 PM 59.4 °F 57.2 °F 93% 29.71 in 10.0 mi SW 8.1 mph - N/A   Overcast
11:15 PM 59.5 °F 56.7 °F 90% 29.71 in 10.0 mi SW 5.8 mph - N/A   Overcast
11:35 PM 59.2 °F 56.3 °F 90% 29.72 in 10.0 mi SW 4.6 mph - N/A   Overcast
11:55 PM 59.0 °F 56.3 °F 91% 29.74 in 10.0 mi WSW 6.9 mph - N/A   Mostly Cloudy